Showing default

ESSA 7 (TOS-E), 3345

Orbit data source: Space-Track

ESSA 7 (TOS-E), 3345 is a payload satellite owned by ESSA (US) in SSO that was launched on Fri, 16 Aug 1968 UTC via a THOR DELTA N launch vehicle from the Air Force Western Test Range (AFWTR). Payload-class satellites include a variety of spacecraft equipped with specific instruments for various scientific and technological missions. These include communications satellites like Starlink; space stations such as the ISS; scientific satellites like the Hubble; Earth observation satellites from companies like Planet Labs, Umbra, and HawkEye 360; GPS; miniature CubeSats for education and research; and military/defense satellites.

Loading next visibility...
Identifier
3345, 1968-069A
Orbit
SSO
Country
Flag of USUS
Related business
Manufacturer
RCA/East Windsor
Mission
Non-operational spacecraft
Bus & Motor
TIROS I, Unknown motor
Mass
154 kg wet, 154 kg dry
Launch date (UTC)
1968-08-16 (58 years ago)
Launch vehicle
THOR DELTA N
Launch site
Air Force Western Test Range (AFWTR)
Object type
Payload
Rocket body
Debris
Shape & HBR
Unknown
Radar Cross Section
Medium (>0.1 m² and <1 m²)

Expand to show TLE details & history
Last TLE update: 20 hours ago

TLE from 20 hours ago
0 ESSA 7 (TOS-E)
1 03345U 68069A   26125.79774654 -.00000035  00000-0  58465-4 0  9990
2 03345 101.5573  93.2193 0026281 251.4607 170.9055 12.53009868639670
Epoch: 2026-05-05T19:08Z
TLE epoch observation values (Epoch: 2026-05-05T19:08:45.301Z)
Latitude
60.35726°
Longitude
-78.58914°
Altitude
1,482.356 km
Speed
7.119 km/s
True Right ascension
04h 49m 04s
True Declination
60° 13' 22"
Sunlit
Object was in daylight at epoch
Visualization orbit readout
Latitude
Unknown
Longitude
Unknown
Altitude
Unknown
Speed
Unknown
Apparent Right ascension
Unknown
Apparent Declination
Unknown
Sunlit
N/A
Visualization observer readout
Local Sidereal Time
23:18:59
Azimuth
Unknown
Elevation
Unknown
Doppler factor
Unknown
Orbital elements
Apogee altitude
1,470.034 km
Perigee altitude
1,428.891 km
Semi-major axis
7,827.599 km
Eccentricity
0.00263
Inclination
101.5573°
RAAN
93.2193°
Arg. of periapsis
251.4607°
True anomaly
170.95295°
Mean anomaly
170.9055°
Eccentric anomaly
170.92924°
Mean motion
3.13401 °/min
Orbital period
114.87 mins
BSTAR
0.000058465
Loading maneuver chart data...
Computing Atmospheric mass density...
Loading historical data...
Loading historical data...
Loading historical data...
Loading historical data...
Loading historical data...
Loading historical data...
Loading historical data...

Documentation

Showing up to 5 results
|